Station 41009 (LLNR 840) - CANAVERAL 20 NM East of Cape Canaveral, FL Image indicating link to RSS feed of recent meteorological observations for station 41009


Conditions at 41009 as of
(10:10 am EDT)
1410 GMT on 05/21/2024:
     

Click on the graph icon in the table below to see a time series plot of the last five days of that observation.

5-day plot - Wind Direction Wind Direction (WDIR):NNW ( 340 deg true )
5-day plot - Wind Speed Wind Speed (WSPD): 11.7 kts
5-day plot - Wind Gust Wind Gust (GST): 13.6 kts
5-day plot - Atmospheric Pressure Atmospheric Pressure (PRES):29.93 in
5-day plot - Air Temperature Air Temperature (ATMP): 76.8 °F
5-day plot - Water Temperature Water Temperature (WTMP): 77.4 °F
5-day plot - Dew Point Dew Point (DEWP): 72.5 °F
5-day plot - Wind Speed at 10 Meters Wind Speed at 10 meters (WSPD10M): 11.7 kts
5-day plot - Wind Speed at 20 Meters Wind Speed at 20 meters (WSPD20M): 13.6 kts
5-day plot -  Wind Speed, Wind Gust and Atmospheric Pressure Combined plot of Wind Speed, Gust, and Air Pressure
Supplemental Measurements
Highest 1-minute Wind Speed
Time (EDT)5-day plot - 1-Minute Wind Speed WSPD 5-day plot - 1-Minute Wind Direction WDIR
10:02 am 11.7 kts-
Previous observations
TIME
(EDT)
5-day plot - Wind Direction
WDIR
 
5-day plot - Wind Speed
WSPD
kts
5-day plot - Wind Gust
GST
kts
5-day plot - Wave Height
WVHT
ft
5-day plot - Dominant Wave Period
DPD
sec
5-day plot - Average Wave Period
APD
sec
5-day plot - Mean Wave Direction
MWD
 
5-day plot - Atmospheric Pressure
PRES
in
5-day plot - Pressure Tendency
PTDY
in
5-day plot - Air Temperature
ATMP
°F
5-day plot - Water Temperature
WTMP
°F
5-day plot - Dew Point
DEWP
°F
5-day plot - Salinity
SAL
psu
5-day plot - Visibility
VIS
nmi
5-day plot - Tide (above MLLW)
TIDE
ft
2024-05-21 10:00 amNNW 9.7 11.7----29.93+0.04 76.8 77.4 72.5---
2024-05-21 09:50 amNNW 9.7 11.7 3.9 85.6NNE29.93- 76.8 77.4 72.5---
2024-05-21 09:40 amNNW 9.7 11.7 3.9-5.6NNE29.92- 76.6 77.4 72.5---
2024-05-21 09:30 amNNW 11.7 13.6----29.92- 76.8 77.2 72.9---
2024-05-21 09:20 amNNW 9.7 11.7 3.9 85.7 NE29.92- 76.6 77.2 72.7---
2024-05-21 09:10 amNNW 9.7 9.7----29.92- 76.5 77.2 72.7---
2024-05-21 09:00 amNNW 9.7 11.7----29.92+0.04 76.5 77.2 72.9---
2024-05-21 08:50 amNNW 9.7 11.7 3.9 85.4 NE29.92- 76.6 77.2 72.9---
2024-05-21 08:40 amNNW 9.7 11.7 3.9-5.4 NE29.92- 76.8 77.2 73.0---
2024-05-21 08:30 am NW 9.7 11.7----29.91- 76.6 77.2 73.0---
2024-05-21 08:20 am NW 7.8 9.7 3.9 95.6NNE29.91- 76.5 77.2 73.0---
2024-05-21 08:10 amNNW 9.7 11.7 3.9-5.6NNE29.91- 76.5 77.0 73.2---
2024-05-21 08:00 amNNW 9.7 11.7----29.91+0.04 76.5 77.0 73.2---
2024-05-21 07:50 am NW 9.7 9.7 4.3 85.9NNE29.90- 76.3 77.0 73.2---
2024-05-21 07:40 amNNW 7.8 9.7----29.90- 76.3 77.0 73.2---
2024-05-21 07:30 amNNW 9.7 11.7----29.90- 76.3 77.2 73.2---
2024-05-21 07:20 amNNW 9.7 11.7 4.3 85.6NNE29.90- 76.3 77.2 73.2---
2024-05-21 07:10 amNNW 9.7 9.7 4.3-5.6NNE29.89- 76.1 77.2 73.0---
2024-05-21 07:00 am NW 7.8 9.7----29.89+0.02 76.3 77.0 73.0---
2024-05-21 06:50 am NW 7.8 9.7 4.3 95.7NNE29.89- 76.3 77.2 73.0---
2024-05-21 06:40 am NW 7.8 9.7----29.89- 76.1 77.2 72.9---
2024-05-21 06:30 am NW 7.8 9.7----29.89- 76.1 77.2 72.9---
2024-05-21 06:20 am NW 7.8 9.7 4.3 105.6NNE29.88- 76.3 77.2 73.2---
2024-05-21 06:10 am NW 9.7 11.7 4.3-5.6NNE29.88- 76.1 77.2 72.9---
2024-05-21 06:00 am NW 9.7 11.7----29.88+0.00 76.3 77.2 72.9---
2024-05-21 05:50 am NW 9.7 11.7 4.3 95.7NNE29.87- 76.1 77.2 72.7---
2024-05-21 05:40 am NW 9.7 11.7----29.87- 76.1 77.2 72.7---
2024-05-21 05:30 am NW 9.7 11.7----29.87- 76.1 77.2 72.7---
2024-05-21 05:20 am NW 9.7 11.7 4.9 95.9NNE29.87- 76.1 77.2 72.7---
2024-05-21 05:10 am NW 9.7 11.7 4.9-5.9NNE29.87- 76.1 77.2 72.5---
2024-05-21 05:00 amNNW 9.7 11.7----29.87-0.02 75.9 77.2 72.3---
2024-05-21 04:50 amNNW 9.7 11.7 4.6 95.8NNE29.87- 76.1 77.2 72.5---
2024-05-21 04:40 amNNW 9.7 11.7----29.87- 75.9 77.2 72.3---
2024-05-21 04:30 amNNW 9.7 13.6----29.87- 76.1 77.2 72.3---
2024-05-21 04:20 amNNW 9.7 11.7 4.3 95.3NNE29.87- 75.9 77.2 72.0---
2024-05-21 04:10 am N 11.7 13.6 4.3-5.3NNE29.87- 75.9 77.2 72.3---
2024-05-21 04:00 amNNW 11.7 13.6----29.87-0.03 75.9 77.2 72.1---
2024-05-21 03:50 am N 9.7 13.6 4.6 95.5NNE29.87- 75.9 77.2 72.1---
2024-05-21 03:40 am N 11.7 15.5----29.87- 75.9 77.2 72.1---
2024-05-21 03:30 am N 13.6 15.5----29.87- 75.9 77.2 72.1---
2024-05-21 03:20 am N 13.6 15.5 4.6 95.5NNE29.88- 75.9 77.2 72.0---
2024-05-21 03:10 am N 11.7 15.5 4.6-5.5NNE29.88- 75.9 77.2 72.1---
2024-05-21 03:00 am N 11.7 13.6----29.88-0.04 75.9 77.4 72.0---
2024-05-21 02:50 amNNW 13.6 15.5 4.6 85.3NNE29.88- 75.9 77.4 71.8---
2024-05-21 02:40 amNNW 11.7 15.5----29.88- 76.1 77.4 72.0---
2024-05-21 02:30 amNNW 13.6 15.5----29.88- 75.9 77.4 71.6---
2024-05-21 02:20 amNNW 13.6 15.5 4.9 95.3NNE29.88- 75.9 77.5 71.6---
2024-05-21 02:10 amNNW 13.6 17.5 4.9-5.3NNE29.88- 75.9 77.5 71.6---
2024-05-21 02:00 amNNW 13.6 15.5----29.89-0.03 76.1 77.5 71.8---
2024-05-21 01:50 am N 13.6 15.5 4.9 95.1NNE29.89- 76.1 77.5 72.0---
2024-05-21 01:40 am N 13.6 17.5----29.89- 76.3 77.7 72.1---
2024-05-21 01:30 am N 15.5 17.5----29.89- 76.3 77.7 72.1---
2024-05-21 01:20 amNNW 15.5 17.5 4.9 95.0NNE29.90- 76.1 77.7 71.8---
2024-05-21 01:10 am N 15.5 19.4----29.90- 76.3 77.7 71.6---
2024-05-21 01:00 am N 15.5 19.4 4.9-5.0NNE29.90-0.01 75.9 77.7 71.4---
2024-05-21 12:50 am N 13.6 17.5 4.9 105.1NNE29.91- 76.3 77.7 72.3---
2024-05-21 12:40 amNNW 13.6 17.5----29.91- 76.3 77.7 72.3---
2024-05-21 12:30 am N 15.5 17.5----29.91- 76.1 77.7 72.0---
2024-05-21 12:20 am N 15.5 19.4 4.9 85.0NNE29.91- 76.3 77.7 72.1---
2024-05-21 12:10 am N 15.5 19.4 4.9-5.0NNE29.91- 76.3 77.7 71.8---
2024-05-21 12:00 amNNW 17.5 19.4----29.91+0.02 76.1 77.7 71.6---
2024-05-20 11:50 pm N 15.5 19.4 4.6 94.8NNE29.91- 76.3 77.7 71.8---
2024-05-20 11:40 pm N 15.5 19.4----29.92- 76.3 77.7 71.8---
2024-05-20 11:30 pm N 15.5 19.4----29.92- 76.5 77.7 72.0---
2024-05-20 11:20 pmNNW 15.5 19.4 4.9 94.8NNE29.91- 76.6 77.9 71.8---
2024-05-20 11:10 pmNNW 17.5 21.4 4.9-4.8NNE29.92- 76.3 77.9 70.7---
2024-05-20 11:00 pmNNW 15.5 21.4----29.92+0.04 76.5 77.7 71.2---
2024-05-20 10:50 pm N 17.5 21.4 4.9 84.8NNE29.92- 76.5 77.7 71.1---
2024-05-20 10:40 pm N 17.5 21.4----29.91- 76.3 77.7 70.9---
2024-05-20 10:30 pm N 17.5 21.4----29.91- 76.3 77.7 71.1---
2024-05-20 10:20 pm N 17.5 19.4 4.9 94.7NNE29.91- 76.5 77.7 71.2---
2024-05-20 10:10 pm N 15.5 19.4 4.9-4.7NNE29.91- 76.5 77.5 71.4---
2024-05-20 10:00 pm N 15.5 21.4----29.91+0.04 76.5 77.5 71.4---
2024-05-20 09:50 pm N 15.5 19.4 4.9 84.7 N29.91- 76.5 77.5 71.6---
2024-05-20 09:40 pm N 17.5 19.4----29.91- 76.5 77.5 71.4---
2024-05-20 09:30 pm N 15.5 19.4----29.91- 76.6 77.5 71.6---
2024-05-20 09:20 pm N 17.5 19.4 4.9 64.6NNW29.90- 76.5 77.5 71.2---
2024-05-20 09:10 pm N 17.5 21.4----29.90- 76.6 77.5 71.4---
2024-05-20 09:00 pm N 15.5 19.4----29.89+0.02 76.5 77.5 71.4---
2024-05-20 08:50 pm N 15.5 19.4 4.9 64.5NNW29.89- 76.6 77.5 71.6---
2024-05-20 08:40 pm N 17.5 21.4----29.88- 76.6 77.7 71.2---
2024-05-20 08:30 pm N 17.5 23.3----29.88- 76.6 77.7 71.2---
2024-05-20 08:20 pm N 19.4 23.3 4.9 54.6NNW29.87- 76.5 77.7 71.1---
2024-05-20 08:10 pm N 19.4 23.3 4.9-4.6NNW29.87- 76.5 77.7 71.6---
2024-05-20 08:00 pm N 19.4 23.3----29.88+0.00 76.6 77.7 71.8---
2024-05-20 07:50 pm N 19.4 23.3 4.9 64.5NNW29.88- 76.6 77.7 71.8---
2024-05-20 07:40 pm N 19.4 23.3----29.87- 76.6 77.9 71.8---
2024-05-20 07:10 pm N 19.4 23.3 4.3-4.3NNW29.87- 76.6 77.9 72.0---
2024-05-20 07:00 pm N 19.4 23.3----29.87-0.02 76.5 77.9 71.8---
2024-05-20 06:50 pm N 19.4 23.3 4.3 64.2NNW29.87- 76.5 77.9 71.8---
2024-05-20 06:40 pm N 19.4 23.3----29.87- 76.5 77.9 72.0---
2024-05-20 06:30 pm N 19.4 23.3----29.87- 76.6 78.1 72.1---
2024-05-20 06:20 pm N 19.4 23.3 3.9 54.0NNW29.87- 76.6 78.1 72.1---
2024-05-20 06:10 pm N 21.4 25.3 3.9-4.0NNW29.87- 76.6 78.1 72.1---
2024-05-20 06:00 pm N 21.4 25.3----29.87-0.03 76.5 78.1 72.1---
2024-05-20 05:50 pm N 19.4 23.3 3.9 54.0NNW29.87- 76.5 78.1 72.1---
2024-05-20 05:40 pm N 19.4 23.3----29.87- 76.6 78.1 72.1---
2024-05-20 05:30 pm N 19.4 23.3----29.87- 76.5 78.1 71.8---
2024-05-20 05:20 pmNNW 17.5 21.4 3.6 44.0NNW29.87- 76.6 78.1 72.0---
2024-05-20 05:10 pmNNW 17.5 21.4 3.6-4.0NNW29.87- 76.6 77.9 72.1---
2024-05-20 05:00 pmNNW 17.5 19.4----29.87-0.04 76.5 77.9 72.1---
2024-05-20 04:50 pmNNW 15.5 19.4 3.0 43.8NNW29.88- 76.5- 72.3---
2024-05-20 04:40 pmNNW 17.5 21.4----29.88- 76.5 77.9 72.1---
2024-05-20 04:30 pm N 17.5 19.4----29.89- 76.5 77.9 72.0---
2024-05-20 04:20 pm N 17.5 21.4 3.0 43.6NNW29.89- 76.6 77.9 72.0---
2024-05-20 04:10 pm N 17.5 19.4 3.0-3.6NNW29.89- 76.6 77.9 71.8---
2024-05-20 04:00 pmNNW 15.5 19.4----29.89-0.01 76.8 77.9 72.1---
2024-05-20 03:50 pmNNW 15.5 19.4 2.6 43.5NNW29.90- 76.6 77.9 71.6---
2024-05-20 03:40 pmNNW 15.5 19.4----29.90- 76.8 78.1 71.8---
2024-05-20 03:30 pmNNW 15.5 19.4----29.90- 76.8 77.9 72.0---
2024-05-20 03:20 pmNNW 15.5 19.4 2.6 43.5NNW29.90- 76.6 77.9 71.6---
2024-05-20 03:10 pmNNW 17.5 19.4----29.90- 76.6 77.9 71.8---
2024-05-20 03:00 pmNNW 17.5 19.4----29.90-0.01 76.8 77.9 72.1---
2024-05-20 02:50 pmNNW 15.5 17.5 2.6 43.7NNW29.90- 76.8 77.9 72.0---
2024-05-20 02:40 pmNNW 15.5 17.5----29.90- 76.8 77.9 71.2---
2024-05-20 02:30 pmNNW 15.5 19.4----29.90- 76.5 77.9 70.7---
2024-05-20 02:20 pm NW 13.6 17.5 2.3 53.6NNW29.90- 76.5 77.9 71.4---
2024-05-20 02:10 pm NW 13.6 17.5----29.91- 76.3 77.9 71.4---
2024-05-20 02:00 pm NW 13.6 15.5----29.91+0.00 76.5 77.9 71.4---
2024-05-20 01:50 pm NW 13.6 17.5 2.3 43.6NNW29.91- 76.1 78.1 70.7---
2024-05-20 01:40 pm NW 13.6 17.5----29.91- 75.9 78.1 71.1---
2024-05-20 01:30 pm NW 13.6 15.5----29.90- 75.9 78.1 71.4---
2024-05-20 01:20 pm NW 13.6 15.5 2.6 43.7NNW29.91- 75.7 78.1 71.4---
2024-05-20 01:10 pm NW 11.7 13.6 2.6-3.7NNW29.91- 75.6 78.1 71.4---
2024-05-20 01:00 pm NW 11.7 13.6----29.91+0.02 75.6 77.9 71.4---
2024-05-20 12:50 pm NW 11.7 15.5 2.6 43.7NNW29.91- 75.6 77.9 71.2---
2024-05-20 12:40 pm NW 13.6 15.5----29.91- 75.4 77.9 71.1---
2024-05-20 12:30 pm NW 13.6 15.5----29.91- 75.2 77.9 71.2---
2024-05-20 12:20 pm NW 13.6 15.5 2.3 43.5NNW29.91- 75.2 77.9 71.4---
2024-05-20 12:10 pm NW 13.6 15.5 2.3-3.5NNW29.91- 75.2 77.9 71.4---
2024-05-20 12:00 pm NW 13.6 15.5----29.91+0.02 75.4 78.1 71.2---
2024-05-20 11:50 am NW 13.6 15.5 2.3 43.5NNW29.91- 75.4 78.1 70.9---
2024-05-20 11:40 am NW 13.6 15.5----29.91- 75.4 78.1 70.9---
2024-05-20 11:30 am NW 13.6 15.5----29.91- 75.9 78.1 71.2---
2024-05-20 11:20 amNNW 13.6 15.5 2.3 33.3 NW29.91- 75.7 78.1 70.3---
2024-05-20 11:10 amNNW 13.6 15.5 2.3-3.3 NW29.91- 75.6 78.1 70.3---
2024-05-20 11:00 amNNW 13.6 15.5----29.91+0.02 75.2 78.1 70.2---
2024-05-20 10:50 amNNW 13.6 15.5 2.0 43.4NNW29.90- 75.4 78.1 71.1---
2024-05-20 10:40 amNNW 13.6 15.5----29.89- 75.6 78.1 71.2---
2024-05-20 10:30 amNNW 13.6 15.5----29.89- 75.4 78.3 71.1---
2024-05-20 10:20 amNNW 13.6 15.5 1.6 43.3 NW29.89- 75.2 78.3 71.1---
2024-05-20 10:10 am NW 13.6 15.5 1.6-3.3 NW29.89- 75.2 78.3 71.2---
2024-05-20 10:00 am NW 11.7 13.6----29.89+0.03 75.2 78.3 71.2---
2024-05-20 09:50 am NW 11.7 13.6 2.0 83.6 E29.89- 75.4 78.4 71.4---

Detailed Wave Summary
for 41009 as of (9:40 am EDT)
1340 GMT on 05/21/2024:

These wave data are displayed in rounded times.

     

Click on the graph icon in the table below to see a time series plot of the last five days of that observation.

5-day plot - Significant Wave Height Significant Wave Height (WVHT): 3.9 ft
5-day plot - Swell Height Swell Height (SwH): 3.3 ft
5-day plot - Swell Period Swell Period (SwP): 7.7 sec
5-day plot - Swell Direction Swell Direction (SwD):NNE
5-day plot - Wind Wave Height Wind Wave Height (WWH): 2.0 ft
5-day plot - Wind Wave Period Wind Wave Period (WWP): 5.3 sec
5-day plot - Wind Wave Direction Wind Wave Direction (WWD):NNE
5-day plot - Wave Steepness Wave Steepness (STEEPNESS): AVERAGE
5-day plot - Average Wave Period Average Wave Period (APD): 5.6 sec
Previous observations
TIME
(EDT)
5-day plot - Wave Height
WVHT
ft
5-day plot - Swell Height
SwH
ft
5-day plot - Swell Period
SwP
sec
5-day plot - Swell Direction
SwD
 
5-day plot - Wind Wave Height
WWH
ft
5-day plot - Wind Wave Period
WWP
sec
5-day plot - Wind Wave Direction
WWD
 
5-day plot - Wave Steepness
STEEPNESS
 
5-day plot - Average Wave Period
APD
sec
2024-05-21 09:10 am 3.9 3.3 8.3 NE 1.6 4.5 N AVERAGE 5.7
2024-05-21 08:40 am 3.9 3.3 8.3 NE 2.0 5.3 NNE AVERAGE 5.4
2024-05-21 08:10 am 3.9 3.6 9.1NNE 1.6 4.0 N SWELL 5.6
2024-05-21 07:40 am 4.3 3.9 8.3NNE 1.6 4.5 NE AVERAGE 5.9
2024-05-21 07:10 am 4.3 3.6 8.3NNE 2.0 3.8 N AVERAGE 5.6
2024-05-21 06:40 am 4.3 3.9 9.1NNE 2.0 4.3 N SWELL 5.7
2024-05-21 06:10 am 4.3 3.9 10.0NNE 1.6 3.7 N SWELL 5.6
2024-05-21 05:40 am 4.3 3.9 9.1NNE 2.3 5.0 N SWELL 5.7
2024-05-21 05:10 am 4.9 4.3 9.1NNE 2.3 5.0 N SWELL 5.9
2024-05-21 04:40 am 4.6 4.3 9.1NNE 2.0 4.8 N SWELL 5.8
2024-05-21 04:10 am 4.3 3.3 9.1NNE 2.3 5.0 N SWELL 5.3
2024-05-21 03:40 am 4.6 3.9 9.1NNE 2.6 3.7 N SWELL 5.5
2024-05-21 03:10 am 4.6 3.3 9.1NNE 3.0 6.2 NNE SWELL 5.5
2024-05-21 02:40 am 4.6 3.6 8.3NNE 3.0 4.8 NNW AVERAGE 5.3
2024-05-21 02:10 am 4.9 3.9 9.1NNE 3.3 5.3 N AVERAGE 5.3
2024-05-21 01:40 am 4.9 3.6 9.1NNE 3.3 4.5 N SWELL 5.1
2024-05-21 01:10 am 4.9 3.3 9.1NNE 3.6 5.3 N AVERAGE 5.0
2024-05-21 12:40 am 4.9 3.3 10.0NNE 3.6 5.0 NNW AVERAGE 5.1
2024-05-21 12:10 am 4.9 3.3 8.3NNE 3.6 5.9 N AVERAGE 5.0
2024-05-20 11:40 pm 4.6 2.6 9.1NNE 3.9 5.6 NNW AVERAGE 4.8
2024-05-20 11:10 pm 4.9 2.6 9.1NNE 3.9 5.6 NNW AVERAGE 4.8
2024-05-20 10:40 pm 4.9 3.0 7.7NNE 4.3 5.9 NNW AVERAGE 4.8
2024-05-20 10:10 pm 4.9 2.6 9.1NNE 3.9 5.9 NNW AVERAGE 4.7
2024-05-20 09:40 pm 4.9 2.3 8.3 N 4.3 5.3 NNW AVERAGE 4.7
2024-05-20 09:10 pm 4.9 2.0 9.1NNE 4.6 5.9 NNWVERY_STEEP 4.6
2024-05-20 08:40 pm 4.9 2.0 8.3NNE 4.6 5.9 NNWVERY_STEEP 4.5
2024-05-20 08:10 pm 4.9 1.0 9.1NNE 4.9 5.3 NNWVERY_STEEP 4.6
2024-05-20 07:40 pm 4.9 1.3 9.1 NE 4.6 5.6 NNWVERY_STEEP 4.5
2024-05-20 07:10 pm 4.3 1.3 10.8 NE 4.3 5.3 NNWVERY_STEEP 4.3
2024-05-20 06:40 pm 4.3 1.0 9.1 NE 4.3 5.9 NNW STEEP 4.2
2024-05-20 06:10 pm 3.9 1.0 9.1 NE 3.9 4.5 NNWVERY_STEEP 4.0
2024-05-20 05:40 pm 3.9 1.0 10.8NNE 3.6 4.5 NNWVERY_STEEP 4.0
2024-05-20 05:10 pm 3.6 1.0 10.8NNE 3.3 4.2 NNWVERY_STEEP 4.0
2024-05-20 04:40 pm 3.0 1.0 10.8 NE 3.0 4.3 NNWVERY_STEEP 3.8
2024-05-20 04:10 pm 3.0 1.0 8.3NNE 2.6 4.0 NNWVERY_STEEP 3.6
2024-05-20 03:40 pm 2.6 1.0 9.1 NE 2.3 4.2 NNWVERY_STEEP 3.5
2024-05-20 03:10 pm 2.6 1.0 8.3ENE 2.6 4.3 NNWVERY_STEEP 3.5
2024-05-20 02:40 pm 2.6 1.0 9.1 E 2.3 4.3 NNW N/A 3.7
2024-05-20 02:10 pm 2.3 1.0 10.8 NE 2.3 4.5 NNW N/A 3.6
2024-05-20 01:40 pm 2.3 1.0 10.0ENE 2.3 4.3 NNW N/A 3.6
2024-05-20 01:10 pm 2.6 1.0 10.8ESE 2.3 4.0 NNW N/A 3.7
2024-05-20 12:40 pm 2.6 1.0 9.1 E 2.3 3.7 NNW N/A 3.7
2024-05-20 12:10 pm 2.3 1.0 8.3ENE 2.3 3.8 NNW N/A 3.5
2024-05-20 11:40 am 2.3 1.0 10.8NNW 2.3 3.7 NNW N/A 3.5
2024-05-20 11:10 am 2.3 1.0 10.0NNE 2.0 3.3 NW N/A 3.3
2024-05-20 10:40 am 2.0 1.0 11.4 E 2.0 3.6 NNW N/A 3.4
2024-05-20 10:10 am 1.6 1.0 9.1ENE 1.6 4.2 NW N/A 3.3

Plot of wave energy versus frequency (and period)